N0JVW-13 Weather Reports


time (UTC)temp
C
wind
direction
speed
KPH
gust
KPH
rain 1hr
cm
rain 24hr
cm
rain mn
cm
humidity
%
barometer
mb
20260509190056 26 257 0.0 6.4 0.00 0.00 0.00 40 1007.8
20260509185531 26 105 0.0 6.4 0.00 0.00 0.00 41 1007.9
20260509185011 26 79 1.6 4.8 0.00 0.00 0.00 42 1007.9
20260509184558 26 294 0.0 4.8 0.00 0.00 0.00 41 1007.9
20260509184023 26 329 0.0 3.2 0.00 0.00 0.00 40 1008.0
20260509183604 26 274 0.0 3.2 0.00 0.00 0.00 38 1008.0
20260509183039 26 274 0.0 3.2 0.00 0.00 0.00 40 1008.0
20260509182515 26 279 0.0 3.2 0.00 0.00 0.00 40 1008.1
20260509182056 26 280 0.0 4.8 0.00 0.00 0.00 41 1008.1
20260509181532 26 280 0.0 4.8 0.00 0.00 0.00 40 1008.2
20260509181010 26 251 0.0 4.8 0.00 0.00 0.00 40 1008.2
20260509180550 26 275 0.0 4.8 0.00 0.00 0.00 43 1008.3
20260509180026 26 326 0.0 1.6 0.00 0.00 0.00 45 1008.4
20260509175502 25 326 0.0 3.2 0.00 0.00 0.00 43 1008.4
20260509175042 25 326 0.0 4.8 0.00 0.00 0.00 42 1008.5
20260509174518 25 291 0.0 4.8 0.00 0.00 0.00 43 1008.5
20260509174100 25 186 0.0 3.2 0.00 0.00 0.00 42 1008.4
20260509173535 25 186 0.0 1.6 0.00 0.00 0.00 45 1008.6
20260509173011 25 186 0.0 3.2 0.00 0.00 0.00 47 1008.7
20260509172551 25 186 0.0 3.2 0.00 0.00 0.00 45 1008.7
20260509172028 25 184 0.0 1.6 0.00 0.00 0.00 48 1008.8
20260509171502 24 295 0.0 4.8 0.00 0.00 0.00 45 1008.9
20260509171044 24 296 0.0 4.8 0.00 0.00 0.00 44 1008.9
20260509170519 24 274 0.0 4.8 0.00 0.00 0.00 44 1008.9
20260509170100 24 274 0.0 4.8 0.00 0.00 0.00 46 1009.0
20260509165536 23 269 0.0 3.2 0.00 0.00 0.00 45 1009.0
20260509165011 23 277 0.0 3.2 0.00 0.00 0.00 43 1009.0
20260509164553 23 284 0.0 1.6 0.00 0.00 0.00 46 1009.0
20260509164028 23 284 0.0 1.6 0.00 0.00 0.00 48 1009.1
20260509163503 23 252 0.0 3.2 0.00 0.00 0.00 49 1009.0
20260509163044 23 296 0.0 4.8 0.00 0.00 0.00 49 1009.0
20260509162521 23 296 0.0 4.8 0.00 0.00 0.00 49 1009.0
20260509162102 22 290 0.0 3.2 0.00 0.00 0.00 50 1008.9
20260509161538 22 290 0.0 3.2 0.00 0.00 0.00 49 1008.9
20260509161013 22 275 0.0 3.2 0.00 0.00 0.00 51 1008.9
20260509160557 22 278 0.0 1.6 0.00 0.00 0.00 51 1008.9
20260509160035 22 278 0.0 3.2 0.00 0.00 0.00 52 1008.9
20260509155507 22 278 0.0 4.8 0.00 0.00 0.00 52 1008.9
20260509155048 22 274 1.6 4.8 0.00 0.00 0.00 51 1008.9
20260509154523 21 302 0.0 4.8 0.00 0.00 0.00 53 1008.8
20260509154104 21 310 1.6 4.8 0.00 0.00 0.00 52 1008.8
20260509153540 21 282 0.0 3.2 0.00 0.00 0.00 54 1008.8
20260509153030 21 272 0.0 3.2 0.00 0.00 0.00 55 1008.7
20260509152557 21 282 0.0 3.2 0.00 0.00 0.00 56 1008.8
20260509152037 21 273 1.6 3.2 0.00 0.00 0.00 56 1008.8
20260509151507 20 282 1.6 4.8 0.00 0.00 0.00 57 1008.8
20260509151048 20 276 0.0 4.8 0.00 0.00 0.00 58 1008.7
20260509150524 20 280 0.0 3.2 0.00 0.00 0.00 58 1008.7
20260509150008 20 276 0.0 4.8 0.00 0.00 0.00 60 1008.7
20260509145550 20 276 1.6 4.8 0.00 0.00 0.00 59 1008.7
20260509145024 20 279 1.6 4.8 0.00 0.00 0.00 60 1008.8
20260509144612 19 274 0.0 4.8 0.00 0.00 0.00 62 1008.8
20260509144039 19 293 3.2 4.8 0.00 0.00 0.00 63 1008.8
20260509143515 18 307 0.0 4.8 0.00 0.00 0.00 66 1008.9
20260509143119 18 306 0.0 4.8 0.00 0.00 0.00 67 1008.8
20260509142533 18 283 0.0 4.8 0.00 0.00 0.00 68 1008.7
20260509142012 18 305 0.0 4.8 0.00 0.00 0.00 69 1008.8
20260509141549 18 297 0.0 4.8 0.00 0.00 0.00 69 1008.8
20260509141024 17 257 1.6 4.8 0.00 0.00 0.00 70 1008.8
20260509140604 17 278 0.0 4.8 0.00 0.00 0.00 72 1008.8
20260509140041 17 279 0.0 6.4 0.00 0.00 0.00 74 1008.8
20260509135517 17 281 0.0 6.4 0.00 0.00 0.00 75 1008.9
20260509135102 16 264 0.0 3.2 0.00 0.00 0.00 76 1008.9
20260509134557 16 302 0.0 6.4 0.00 0.00 0.00 76 1008.9
20260509134010 16 316 1.6 6.4 0.00 0.00 0.00 76 1008.9
20260509133553 16 327 0.0 6.4 0.00 0.00 0.00 76 1008.9
20260509133029 15 282 0.0 3.2 0.00 0.00 0.00 75 1009.0
20260509132502 15 283 0.0 3.2 0.00 0.00 0.00 74 1009.0
20260509132046 15 313 0.0 3.2 0.00 0.00 0.00 72 1009.0
20260509131518 15 268 0.0 3.2 0.00 0.00 0.00 71 1009.0
20260509131057 15 253 0.0 3.2 0.00 0.00 0.00 66 1009.0
20260509130537 15 300 0.0 3.2 0.00 0.00 0.00 64 1008.9
20260509130010 14 310 0.0 1.6 0.00 0.00 0.00 54 1008.7
20260509125549 14 273 0.0 0.0 0.00 0.00 0.00 46 1008.6
20260509125030 13 273 0.0 0.0 0.00 0.00 0.00 33 1008.6
20260509124504 13 273 0.0 0.0 0.00 0.00 0.00 23 1008.6
20260509124046 13 273 0.0 0.0 0.00 0.00 0.00 15 1008.6
20260509123520 13 273 0.0 1.6 0.00 0.00 0.00 1 1008.6
20260509123131 12 273 0.0 1.6 0.00 0.00 0.00 1 1008.6
20260509122537 12 155 0.0 0.0 0.00 0.00 0.00 1 1008.5
20260509122016 12 155 0.0 0.0 0.00 0.00 0.00 1 1008.4
20260509121612 12 155 0.0 0.0 0.00 0.00 0.00 1 1008.4
20260509121031 12 155 0.0 0.0 0.00 0.00 0.00 1 1008.2
20260509120507 12 155 0.0 0.0 0.00 0.00 0.00 1 1008.2
20260509120048 11 155 0.0 0.0 0.00 0.00 0.00 1 1008.2
20260509115522 11 155 0.0 0.0 0.00 0.00 0.00 1 1008.1
20260509115100 11 155 0.0 0.0 0.00 0.00 0.00 1 1008.1
20260509114539 11 155 0.0 0.0 0.00 0.00 0.00 1 1008.1
20260509114016 11 155 0.0 0.0 0.00 0.00 0.00 1 1008.0
20260509113556 11 155 0.0 0.0 0.00 0.00 0.00 1 1007.9
20260509113036 11 155 0.0 0.0 0.00 0.00 0.00 1 1007.8
20260509112505 11 155 0.0 0.0 0.00 0.00 0.00 1 1007.6
20260509112046 11 155 0.0 0.0 0.00 0.00 0.00 1 1007.6
20260509111522 11 155 0.0 0.0 0.00 0.00 0.00 1 1007.6
20260509111104 11 155 0.0 0.0 0.00 0.00 0.00 1 1007.6
20260509110537 11 155 0.0 3.2 0.00 0.00 0.00 1 1007.6
20260509110013 11 155 0.0 3.2 0.00 0.00 0.00 1 1007.6
20260509105554 11 154 0.0 0.0 0.00 0.00 0.00 1 1007.5
20260509105028 11 154 0.0 0.0 0.00 0.00 0.00 1 1007.6
20260509104503 11 154 0.0 0.0 0.00 0.00 0.00 1 1007.6
20260509104043 11 154 0.0 0.0 0.00 0.00 0.00 1 1007.7
20260509103518 11 154 0.0 0.0 0.00 0.00 0.00 1 1007.7
20260509103106 11 154 0.0 0.0 0.00 0.00 0.00 1 1007.7
20260509102535 12 154 0.0 0.0 0.00 0.00 0.00 1 1007.6
20260509102013 12 154 0.0 0.0 0.00 0.00 0.00 1 1007.6
20260509101618 12 154 0.0 0.0 0.00 0.00 0.00 1 1007.6
20260509101031 12 154 0.0 0.0 0.00 0.00 0.00 1 1007.7
20260509100502 12 154 0.0 0.0 0.00 0.00 0.00 1 1007.8
20260509100044 12 154 0.0 0.0 0.00 0.00 0.00 1 1007.9
20260509095521 12 154 0.0 0.0 0.00 0.00 0.00 1 1007.8
20260509095103 12 154 0.0 0.0 0.00 0.00 0.00 1 1007.8
20260509094540 12 154 0.0 0.0 0.00 0.00 0.00 1 1007.9
20260509094013 12 154 0.0 0.0 0.00 0.00 0.00 1 1007.9
20260509093555 12 154 0.0 0.0 0.00 0.00 0.00 1 1007.8
20260509093030 12 154 0.0 0.0 0.00 0.00 0.00 1 1007.9
20260509092506 12 154 0.0 0.0 0.00 0.00 0.00 1 1007.9
20260509092047 12 154 0.0 0.0 0.00 0.00 0.00 1 1007.8
20260509091536 12 154 0.0 0.0 0.00 0.00 0.00 1 1007.7
20260509091001 12 154 0.0 0.0 0.00 0.00 0.00 1 1007.8
20260509090543 12 154 0.0 0.0 0.00 0.00 0.00 1 1007.7
20260509090017 12 154 0.0 0.0 0.00 0.00 0.00 1 1007.6
20260509085557 12 154 0.0 0.0 0.00 0.00 0.00 1 1007.6
20260509085034 12 154 0.0 0.0 0.00 0.00 0.00 1 1007.5
20260509084510 12 154 0.0 0.0 0.00 0.00 0.00 1 1007.7
20260509084052 12 154 0.0 0.0 0.00 0.00 0.00 1 1007.7
20260509083527 12 154 0.0 0.0 0.00 0.00 0.00 1 1007.7
20260509083002 12 154 0.0 0.0 0.00 0.00 0.00 1 1007.6
20260509082543 12 154 0.0 0.0 0.00 0.00 0.00 1 1007.7
20260509082019 12 154 0.0 0.0 0.00 0.00 0.00 1 1007.7
20260509081611 12 154 0.0 0.0 0.00 0.00 0.00 1 1007.8
20260509081037 12 154 0.0 0.0 0.00 0.00 0.00 1 1007.8
20260509080512 12 154 0.0 0.0 0.00 0.00 0.00 1 1007.8
20260509080053 12 154 0.0 0.0 0.00 0.00 0.00 1 1007.7
20260509075529 12 154 0.0 0.0 0.00 0.00 0.00 1 1007.8
20260509075004 12 154 0.0 0.0 0.00 0.00 0.00 1 1007.8
20260509074549 12 154 0.0 0.0 0.00 0.00 0.00 1 1007.7
20260509074017 12 154 0.0 0.0 0.00 0.00 0.00 1 1007.8
20260509073601 12 154 0.0 0.0 0.00 0.00 0.00 1 1007.9
20260509073033 12 154 0.0 0.0 0.00 0.00 0.00 1 1007.9
20260509072510 12 154 0.0 0.0 0.00 0.00 0.00 1 1008.0
20260509072055 12 154 0.0 0.0 0.00 0.00 0.00 1 1008.0
20260509071527 12 154 0.0 0.0 0.00 0.00 0.00 1 1007.9
20260509071004 12 154 0.0 0.0 0.00 0.00 0.00 1 1007.9
20260509070544 12 154 0.0 0.0 0.00 0.00 0.00 1 1008.0
20260509070022 12 154 0.0 0.0 0.00 0.00 0.00 1 1008.0
20260509065601 12 154 0.0 0.0 0.00 0.00 0.00 1 1008.0
20260509065037 12 154 0.0 0.0 0.00 0.00 0.00 1 1008.0
20260509064515 12 154 0.0 0.0 0.00 0.00 0.00 1 1008.0
20260509064055 12 154 0.0 0.0 0.00 0.00 0.00 1 1008.1
20260509063530 12 154 0.0 0.0 0.00 0.00 0.00 1 1008.1
20260509063013 13 154 0.0 0.0 0.00 0.00 0.00 1 1008.1
20260509062548 13 154 0.0 0.0 0.00 0.00 0.00 1 1008.2
20260509062029 13 154 0.0 0.0 0.00 0.00 0.00 1 1008.2
20260509061607 13 153 0.0 0.0 0.00 0.00 0.00 1 1008.3
20260509061039 13 154 0.0 1.6 0.00 0.00 0.00 1 1008.3
20260509060516 12 154 0.0 1.6 0.00 0.00 0.00 1 1008.3
20260509060056 12 154 0.0 0.0 0.00 0.00 0.00 1 1008.4
20260509055532 12 154 0.0 0.0 0.00 0.00 0.00 1 1008.3
20260509055008 12 154 0.0 0.0 0.00 0.00 0.00 1 1008.3
20260509054559 12 154 0.0 0.0 0.00 0.00 0.00 1 1008.4
20260509054025 12 154 0.0 0.0 0.00 0.00 0.00 1 1008.3
20260509053501 12 154 0.0 0.0 0.00 0.00 0.00 1 1008.3
20260509053046 12 154 0.0 0.0 0.00 0.00 0.00 1 1008.3
20260509052517 12 128 0.0 0.0 0.00 0.00 0.00 1 1008.3
20260509052059 12 128 0.0 0.0 0.00 0.00 0.00 1 1008.2
20260509051539 12 128 0.0 0.0 0.00 0.00 0.00 1 1008.3
20260509051012 12 128 0.0 0.0 0.00 0.00 0.00 1 1008.3
20260509050556 12 127 0.0 0.0 0.00 0.00 0.00 1 1008.2
20260509050031 12 126 0.0 0.0 0.00 0.00 0.00 3 1008.3
20260509045504 12 126 0.0 0.0 0.00 0.00 0.00 3 1008.3
20260509045046 12 126 0.0 0.0 0.00 0.00 0.00 3 1008.4
20260509044522 12 126 0.0 0.0 0.00 0.00 0.00 5 1008.4
20260509044105 12 126 0.0 0.0 0.00 0.00 0.00 7 1008.5
20260509043539 12 126 0.0 0.0 0.00 0.00 0.00 7 1008.5
20260509043016 13 126 0.0 0.0 0.00 0.00 0.00 7 1008.5
20260509042556 13 126 0.0 0.0 0.00 0.00 0.00 7 1008.5
20260509042033 13 347 0.0 0.0 0.00 0.00 0.00 8 1008.6
20260509041508 13 347 0.0 0.0 0.00 0.00 0.00 9 1008.7
20260509041049 13 347 0.0 0.0 0.00 0.00 0.00 8 1008.7
20260509040523 13 347 0.0 0.0 0.00 0.00 0.00 9 1008.7
20260509040106 13 347 0.0 0.0 0.00 0.00 0.00 10 1008.6
20260509035541 13 347 0.0 0.0 0.00 0.00 0.00 12 1008.6
20260509035017 13 347 0.0 0.0 0.00 0.00 0.00 13 1008.6
20260509034557 13 347 0.0 0.0 0.00 0.00 0.00 15 1008.5
20260509034037 13 347 0.0 0.0 0.00 0.00 0.00 20 1008.6
20260509033509 13 347 0.0 0.0 0.00 0.00 0.00 21 1008.6
20260509033050 13 347 0.0 0.0 0.00 0.00 0.00 22 1008.6
20260509032526 13 347 0.0 0.0 0.00 0.00 0.00 23 1008.7
20260509032002 13 347 0.0 0.0 0.00 0.00 0.00 22 1008.6
20260509031543 13 347 0.0 0.0 0.00 0.00 0.00 23 1008.5
20260509031018 13 347 0.0 0.0 0.00 0.00 0.00 29 1008.5
20260509030558 13 347 0.0 0.0 0.00 0.00 0.00 29 1008.6
20260509030034 13 347 0.0 0.0 0.00 0.00 0.00 32 1008.5
20260509025510 13 347 0.0 0.0 0.00 0.00 0.00 32 1008.4
20260509025053 13 347 0.0 1.6 0.00 0.00 0.00 34 1008.4
20260509024530 13 347 0.0 1.6 0.00 0.00 0.00 30 1008.3
20260509024007 13 347 0.0 0.0 0.00 0.00 0.00 36 1008.2
20260509023546 13 347 0.0 0.0 0.00 0.00 0.00 44 1008.2
20260509023027 13 347 0.0 0.0 0.00 0.00 0.00 49 1008.2
20260509022603 13 347 0.0 0.0 0.00 0.00 0.00 49 1008.2
20260509022038 13 347 0.0 0.0 0.00 0.00 0.00 52 1008.1
20260509021515 14 347 0.0 0.0 0.00 0.00 0.00 53 1008.0
20260509021055 14 347 0.0 0.0 0.00 0.00 0.00 53 1007.9
20260509020530 14 347 0.0 0.0 0.00 0.00 0.00 54 1007.8
20260509020011 14 347 0.0 0.0 0.00 0.00 0.00 57 1007.8
20260509015547 14 347 0.0 0.0 0.00 0.00 0.00 56 1007.7
20260509015026 15 347 0.0 0.0 0.00 0.00 0.00 60 1007.7
20260509014604 15 347 0.0 0.0 0.00 0.00 0.00 61 1007.7
20260509014039 15 347 0.0 0.0 0.00 0.00 0.00 62 1007.6
20260509013516 15 347 0.0 0.0 0.00 0.00 0.00 65 1007.6
20260509013102 15 347 0.0 0.0 0.00 0.00 0.00 66 1007.5
20260509012532 15 347 0.0 0.0 0.00 0.00 0.00 66 1007.4
20260509012005 15 347 0.0 0.0 0.00 0.00 0.00 67 1007.2
20260509011545 15 347 0.0 0.0 0.00 0.00 0.00 69 1007.1
20260509011021 15 347 0.0 0.0 0.00 0.00 0.00 69 1007.1
20260509010606 16 347 0.0 0.0 0.00 0.00 0.00 69 1007.0
20260509010043 16 347 0.0 0.0 0.00 0.00 0.00 70 1006.9
20260509005520 16 347 0.0 0.0 0.00 0.00 0.00 71 1006.8
20260509005059 16 347 0.0 0.0 0.00 0.00 0.00 71 1006.8
20260509004536 16 347 0.0 0.0 0.00 0.00 0.00 72 1006.5
20260509004011 16 347 0.0 0.0 0.00 0.00 0.00 72 1006.6
20260509003552 16 347 0.0 0.0 0.00 0.00 0.00 72 1006.6
20260509003028 16 347 0.0 1.6 0.00 0.00 0.00 72 1006.6
20260509002504 16 347 0.0 1.6 0.00 0.00 0.00 72 1006.6
20260509002045 16 347 0.0 3.2 0.00 0.00 0.00 72 1006.7
20260509001520 16 347 1.6 3.2 0.00 0.00 0.00 72 1006.7
20260509001103 16 11 0.0 4.8 0.00 0.00 0.00 72 1006.7
20260509000537 16 4 0.0 4.8 0.00 0.00 0.00 72 1006.7
20260509000013 16 159 0.0 1.6 0.00 0.00 0.00 72 1006.7
20260508235553 16 159 0.0 0.0 0.00 0.00 0.00 72 1006.5
20260508235029 16 159 0.0 1.6 0.00 0.00 0.00 72 1006.4
20260508234505 16 159 0.0 1.6 0.00 0.00 0.00 73 1006.2
20260508234048 16 159 0.0 0.0 0.00 0.00 0.00 72 1006.1
20260508233521 16 159 0.0 0.0 0.00 0.00 0.00 72 1006.0
20260508233128 16 159 0.0 0.0 0.00 0.00 0.00 72 1006.0
20260508232537 16 159 0.0 0.0 0.00 0.00 0.00 71 1006.2
20260508232013 16 159 0.0 0.0 0.00 0.00 0.00 71 1006.3
20260508231554 16 39 0.0 0.0 0.00 0.00 0.00 71 1006.3
20260508231033 16 3 0.0 0.0 0.00 0.00 0.00 69 1006.3
20260508230505 16 3 0.0 1.6 0.00 0.00 0.00 69 1006.4
20260508230048 16 3 0.0 1.6 0.00 0.00 0.00 67 1006.4
20260508225522 16 3 0.0 3.2 0.00 0.00 0.00 67 1006.4
20260508225103 16 3 0.0 4.8 0.00 0.00 0.00 68 1006.4
20260508224538 16 359 1.6 4.8 0.00 0.00 0.00 67 1006.6
20260508224013 16 347 0.0 6.4 0.00 0.00 0.00 67 1006.8
20260508223558 16 345 3.2 8.0 0.00 0.00 0.00 69 1006.9
20260508223032 16 358 0.0 11.3 0.00 0.00 0.00 66 1006.9
20260508222507 16 34 6.4 11.3 0.00 0.00 0.00 70 1007.0
20260508222048 16 10 1.6 9.7 0.00 0.00 0.00 70 1006.9
20260508221524 16 23 3.2 9.7 0.00 0.00 0.00 72 1007.0
20260508221002 16 354 1.6 14.5 0.00 0.00 0.00 70 1006.9
20260508220542 16 335 4.8 14.5 0.00 0.00 0.00 71 1006.9
20260508220024 16 2 3.2 9.7 0.00 0.00 0.00 73 1007.0
20260508215558 17 23 1.6 6.4 0.00 0.00 0.00 75 1007.1
20260508215034 17 342 1.6 8.0 0.00 0.00 0.00 75 1007.1
20260508214523 17 354 0.0 8.0 0.00 0.00 0.00 75 1007.2
20260508214050 17 9 0.0 3.2 0.00 0.00 0.00 75 1007.2
20260508213526 18 24 0.0 4.8 0.00 0.00 0.00 75 1007.3
20260508213002 18 24 0.0 4.8 0.00 0.00 0.00 74 1007.3
20260508212543 18 5 0.0 3.2 0.00 0.00 0.00 74 1007.5
20260508212018 18 337 0.0 3.2 0.00 0.00 0.00 72 1007.5
20260508211600 18 339 0.0 3.2 0.00 0.00 0.00 72 1007.6
20260508211039 18 339 0.0 1.6 0.00 0.00 0.00 72 1007.7
20260508210513 18 30 0.0 1.6 0.00 0.00 0.00 72 1007.6
20260508210055 18 30 0.0 6.4 0.00 0.00 0.00 72 1007.3
20260508205529 19 30 3.2 6.4 0.00 0.00 0.00 71 1007.0
20260508205005 19 8 0.0 3.2 0.00 0.00 0.00 72 1007.2
20260508204552 19 8 0.0 6.4 0.00 0.00 0.00 72 1007.4
20260508204021 19 152 0.0 1.6 0.00 0.00 0.00 72 1007.5
20260508203603 18 152 0.0 1.6 0.00 0.00 0.00 74 1007.7
20260508203040 18 152 0.0 0.0 0.00 0.00 0.00 74 1008.1
20260508202514 18 152 0.0 0.0 0.00 0.00 0.00 74 1007.9
20260508202059 18 152 0.0 0.0 0.00 0.00 0.00 74 1007.6
20260508201536 18 152 0.0 0.0 0.00 0.00 0.00 74 1007.8
20260508201013 18 152 0.0 0.0 0.00 0.00 0.00 73 1007.8
20260508200551 18 152 0.0 0.0 0.00 0.00 0.00 73 1007.6
20260508200026 18 152 0.0 0.0 0.00 0.00 0.00 72 1007.4
20260508195605 18 152 0.0 0.0 0.00 0.00 0.00 73 1007.4
20260508195041 18 152 0.0 0.0 0.00 0.00 0.00 73 1007.7
20260508194528 18 152 0.0 0.0 0.00 0.00 0.00 74 1007.9
20260508194057 18 152 0.0 0.0 0.00 0.00 0.00 74 1007.9
20260508193534 18 152 0.0 0.0 0.00 0.00 0.00 74 1008.1
20260508193010 18 105 0.0 0.0 0.00 0.00 0.00 73 1008.1
20260508192551 18 105 0.0 0.0 0.00 0.00 0.00 74 1008.0
20260508192027 18 105 0.0 0.0 0.00 0.00 0.00 72 1007.7
20260508191503 18 105 0.0 0.0 0.00 0.00 0.00 71 1007.9
20260508191042 18 105 0.0 0.0 0.00 0.00 0.00 71 1008.1
20260508190519 18 105 0.0 0.0 0.00 0.00 0.00 70 1008.2